ANG91 YBCS-AYPY

Flight info

Callsign ANG91
Flight time 1h 15m
Altitude 31000
Route CS R210 LENAK DCT UNSAM UNSAM1
Aircraft B738/M-SDE2E3FGHIRWXY/LB1

Departure

Time 2026-04-27 09:03
Airport Cairns International Airport (YBCS)

Arrival

Time 2026-04-27 10:18
Airport Port Moresby Jacksons International Airport (AYPY)
Time Latitude Longitude Altitude Speed Heading
2026-04-27 08:22 -16.87618 145.75223 17 ft 0 kts 66°
2026-04-27 08:25 -16.87511 145.75168 16 ft 0 kts 65°
2026-04-27 08:49 -16.87515 145.75157 16 ft 2 kts 65°
2026-04-27 08:49 -16.87521 145.75142 16 ft 2 kts 65°
2026-04-27 08:49 -16.87527 145.75128 16 ft 2 kts 65°
2026-04-27 08:50 -16.87532 145.75119 16 ft 2 kts 58°
2026-04-27 08:50 -16.87542 145.75107 16 ft 2 kts 30°
2026-04-27 08:50 -16.87557 145.75102 16 ft 2 kts
2026-04-27 08:50 -16.87571 145.75102 16 ft 1 kts 343°
2026-04-27 08:51 -16.87578 145.75105 16 ft 1 kts 335°
2026-04-27 08:51 -16.87579 145.75107 16 ft 0 kts 336°
2026-04-27 08:53 -16.87562 145.75099 16 ft 7 kts 338°
2026-04-27 08:53 -16.87491 145.75070 16 ft 11 kts 339°
2026-04-27 08:53 -16.87432 145.75047 16 ft 6 kts 339°
2026-04-27 08:54 -16.87410 145.75037 16 ft 5 kts 330°
2026-04-27 08:54 -16.87369 145.75014 16 ft 7 kts 334°
2026-04-27 08:54 -16.87330 145.74980 16 ft 6 kts 307°
2026-04-27 08:54 -16.87311 145.74942 16 ft 6 kts 294°
2026-04-27 08:55 -16.87290 145.74893 17 ft 8 kts 298°
2026-04-27 08:55 -16.87242 145.74855 18 ft 8 kts 336°
2026-04-27 08:55 -16.87197 145.74834 18 ft 5 kts 335°
2026-04-27 08:55 -16.87169 145.74821 19 ft 0 kts 335°
2026-04-27 08:58 -16.87146 145.74809 19 ft 9 kts 336°
2026-04-27 08:58 -16.87098 145.74788 19 ft 4 kts 336°
2026-04-27 08:58 -16.87079 145.74779 20 ft 0 kts 330°
2026-04-27 08:59 -16.87077 145.74777 20 ft 2 kts 330°
2026-04-27 08:59 -16.87049 145.74745 20 ft 8 kts 285°
2026-04-27 08:59 -16.87054 145.74704 19 ft 4 kts 252°
2026-04-27 09:00 -16.87055 145.74701 19 ft 0 kts 251°
2026-04-27 09:01 -16.87056 145.74696 19 ft 2 kts 252°
2026-04-27 09:01 -16.87065 145.74666 19 ft 6 kts 249°
2026-04-27 09:01 -16.87093 145.74620 19 ft 7 kts 223°
2026-04-27 09:01 -16.87134 145.74608 19 ft 6 kts 171°
2026-04-27 09:02 -16.87149 145.74612 19 ft 0 kts 159°
2026-04-27 09:02 -16.87203 145.74635 18 ft 39 kts 156°
2026-04-27 09:02 -16.87817 145.74915 16 ft 125 kts 156°
2026-04-27 09:02 -16.88787 145.75357 184 ft 168 kts 157°
2026-04-27 09:03 -16.89903 145.75858 732 ft 185 kts 156°
2026-04-27 09:03 -16.91009 145.76376 1660 ft 180 kts 155°
2026-04-27 09:03 -16.92097 145.76944 2351 ft 179 kts 153°
2026-04-27 09:03 -16.93227 145.77542 2776 ft 195 kts 154°
2026-04-27 09:04 -16.94509 145.77982 3204 ft 211 kts 165°
2026-04-27 09:04 -16.95924 145.78383 3194 ft 247 kts 157°
2026-04-27 09:04 -16.97346 145.79492 4166 ft 245 kts 126°
2026-04-27 09:04 -16.97918 145.81035 5385 ft 229 kts 96°
2026-04-27 09:05 -16.97644 145.82655 6232 ft 231 kts 65°
2026-04-27 09:05 -16.96576 145.83891 6967 ft 238 kts 33°
2026-04-27 09:05 -16.94977 145.84387 7682 ft 245 kts
2026-04-27 09:05 -16.93321 145.84253 8409 ft 247 kts 355°
2026-04-27 09:06 -16.91678 145.84097 9099 ft 250 kts 356°
2026-04-27 09:06 -16.89936 145.83939 9829 ft 253 kts 356°
2026-04-27 09:06 -16.88164 145.83769 10567 ft 256 kts 356°
2026-04-27 09:06 -16.86396 145.83597 11294 ft 258 kts 356°
2026-04-27 09:07 -16.84631 145.83421 12013 ft 261 kts 356°
2026-04-27 09:07 -16.82813 145.83296 12593 ft 269 kts
2026-04-27 09:07 -16.80919 145.83557 12815 ft 292 kts 12°
2026-04-27 09:07 -16.78853 145.83858 13119 ft 315 kts
2026-04-27 09:08 -16.76603 145.84090 13330 ft 341 kts
2026-04-27 09:08 -16.74183 145.84331 13756 ft 359 kts
2026-04-27 09:08 -16.71683 145.84580 14458 ft 367 kts
2026-04-27 09:08 -16.69131 145.84830 15220 ft 374 kts
2026-04-27 09:09 -16.66549 145.85080 15989 ft 380 kts
2026-04-27 09:09 -16.63923 145.85333 16740 ft 386 kts
2026-04-27 09:09 -16.61233 145.85594 17480 ft 391 kts
2026-04-27 09:09 -16.58536 145.85867 18005 ft 400 kts
2026-04-27 09:10 -16.55795 145.86142 17995 ft 401 kts
2026-04-27 09:10 -16.53083 145.86389 17994 ft 394 kts
2026-04-27 09:10 -16.50354 145.86630 17994 ft 393 kts
2026-04-27 09:10 -16.47668 145.86873 17993 ft 394 kts
2026-04-27 09:11 -16.44925 145.87140 17993 ft 395 kts
2026-04-27 09:11 -16.42185 145.87415 18274 ft 408 kts
2026-04-27 09:11 -16.39364 145.87689 19172 ft 408 kts
2026-04-27 09:11 -16.36554 145.87959 19940 ft 410 kts
2026-04-27 09:12 -16.33698 145.88234 20629 ft 414 kts
2026-04-27 09:12 -16.30843 145.88506 21290 ft 418 kts
2026-04-27 09:12 -16.27981 145.88779 21911 ft 423 kts
2026-04-27 09:12 -16.25070 145.89058 22522 ft 427 kts
2026-04-27 09:13 -16.22111 145.89342 23124 ft 431 kts
2026-04-27 09:13 -16.19093 145.89630 23729 ft 434 kts
2026-04-27 09:13 -16.16118 145.89916 24294 ft 438 kts
2026-04-27 09:13 -16.13082 145.90205 24861 ft 442 kts
2026-04-27 09:14 -16.10034 145.90497 25421 ft 445 kts
2026-04-27 09:14 -16.06942 145.90791 25945 ft 448 kts
2026-04-27 09:14 -16.03839 145.91086 26491 ft 451 kts
2026-04-27 09:14 -16.00750 145.91522 26995 ft 455 kts
2026-04-27 09:15 -15.97673 145.92171 27527 ft 457 kts 10°
2026-04-27 09:15 -15.94592 145.92844 28310 ft 452 kts
2026-04-27 09:15 -15.91558 145.93468 28976 ft 449 kts
2026-04-27 09:15 -15.88497 145.94076 29427 ft 451 kts
2026-04-27 09:16 -15.85451 145.94681 29969 ft 450 kts
2026-04-27 09:16 -15.82405 145.95285 30559 ft 447 kts
2026-04-27 09:16 -15.79360 145.95894 30991 ft 447 kts
2026-04-27 09:17 -15.73130 145.97133 30994 ft 466 kts
2026-04-27 09:17 -15.66669 145.98451 30994 ft 483 kts
2026-04-27 09:18 -15.60027 145.99793 30993 ft 499 kts
2026-04-27 09:18 -15.53181 146.01202 30992 ft 505 kts
2026-04-27 09:19 -15.46342 146.02631 30992 ft 504 kts
2026-04-27 09:19 -15.39477 146.04005 30993 ft 503 kts
2026-04-27 09:20 -15.32634 146.05374 30993 ft 504 kts
2026-04-27 09:20 -15.25774 146.06784 30992 ft 504 kts
2026-04-27 09:21 -15.18938 146.08195 30993 ft 504 kts
2026-04-27 09:21 -15.12066 146.09599 30993 ft 504 kts
2026-04-27 09:22 -15.05252 146.10965 30992 ft 503 kts
2026-04-27 09:22 -14.98415 146.12315 30993 ft 500 kts
2026-04-27 09:23 -14.91626 146.13672 30993 ft 495 kts
2026-04-27 09:23 -14.84905 146.15034 30993 ft 492 kts
2026-04-27 09:24 -14.78217 146.16380 30993 ft 493 kts
2026-04-27 09:24 -14.71497 146.17731 30993 ft 493 kts
2026-04-27 09:25 -14.64810 146.19073 30993 ft 493 kts
2026-04-27 09:25 -14.58082 146.20412 30993 ft 493 kts
2026-04-27 09:26 -14.51347 146.21761 30993 ft 493 kts
2026-04-27 09:26 -14.44674 146.23103 30993 ft 493 kts
2026-04-27 09:27 -14.37922 146.24490 30993 ft 493 kts
2026-04-27 09:27 -14.31216 146.25836 30993 ft 493 kts
2026-04-27 09:28 -14.24534 146.27174 30993 ft 493 kts
2026-04-27 09:28 -14.17781 146.28528 30993 ft 493 kts
2026-04-27 09:29 -14.11108 146.29863 30993 ft 493 kts
2026-04-27 09:29 -14.04405 146.31203 30993 ft 493 kts
2026-04-27 09:30 -13.97685 146.32546 30993 ft 493 kts
2026-04-27 09:30 -13.90954 146.33891 30993 ft 493 kts
2026-04-27 09:31 -13.84244 146.35231 30993 ft 493 kts
2026-04-27 09:31 -13.77521 146.36569 30993 ft 493 kts
2026-04-27 09:32 -13.70812 146.37904 30993 ft 493 kts
2026-04-27 09:32 -13.64126 146.39237 30993 ft 493 kts
2026-04-27 09:33 -13.57383 146.40579 30993 ft 493 kts
2026-04-27 09:33 -13.50681 146.41911 30993 ft 493 kts
2026-04-27 09:34 -13.43948 146.43251 30993 ft 493 kts
2026-04-27 09:34 -13.37246 146.44583 30993 ft 493 kts
2026-04-27 09:35 -13.30537 146.45917 30993 ft 493 kts
2026-04-27 09:35 -13.23829 146.47247 30993 ft 493 kts
2026-04-27 09:36 -13.17119 146.48570 30993 ft 493 kts
2026-04-27 09:36 -13.10403 146.49896 30993 ft 493 kts
2026-04-27 09:37 -13.03696 146.51224 30993 ft 493 kts 10°
2026-04-27 09:37 -12.96988 146.52550 30993 ft 491 kts 10°
2026-04-27 09:38 -12.90307 146.53870 30993 ft 490 kts 10°
2026-04-27 09:38 -12.83606 146.55194 30993 ft 490 kts 10°
2026-04-27 09:39 -12.76940 146.56511 30993 ft 491 kts 10°
2026-04-27 09:39 -12.70267 146.57829 30993 ft 490 kts 10°
2026-04-27 09:40 -12.63572 146.59152 30993 ft 490 kts 10°
2026-04-27 09:40 -12.56899 146.60469 30993 ft 490 kts 10°
2026-04-27 09:41 -12.50246 146.61783 30993 ft 491 kts 10°
2026-04-27 09:41 -12.43593 146.63094 30992 ft 491 kts 10°
2026-04-27 09:42 -12.36869 146.64416 30993 ft 491 kts 10°
2026-04-27 09:42 -12.30232 146.65712 30989 ft 490 kts
2026-04-27 09:43 -12.23505 146.67029 30955 ft 491 kts 10°
2026-04-27 09:43 -12.16838 146.68382 30921 ft 491 kts 11°
2026-04-27 09:44 -12.10174 146.69696 30912 ft 491 kts 10°
2026-04-27 09:44 -12.03559 146.70998 30912 ft 491 kts 10°
2026-04-27 09:45 -11.96914 146.72305 30912 ft 491 kts 10°
2026-04-27 09:45 -11.90230 146.73624 30912 ft 491 kts 10°
2026-04-27 09:46 -11.85420 146.74573 30912 ft 491 kts 10°
2026-04-27 09:46 -11.78730 146.75891 30912 ft 491 kts 10°
2026-04-27 09:47 -11.72039 146.77206 30912 ft 491 kts 10°
2026-04-27 09:47 -11.65449 146.78503 30912 ft 491 kts 10°
2026-04-27 09:48 -11.58830 146.79805 30912 ft 491 kts 10°
2026-04-27 09:48 -11.52296 146.81088 30912 ft 491 kts 10°
2026-04-27 09:49 -11.45774 146.82370 30912 ft 491 kts 10°
2026-04-27 09:49 -11.39240 146.83653 30912 ft 491 kts 10°
2026-04-27 09:50 -11.32613 146.84952 30912 ft 491 kts 10°
2026-04-27 09:50 -11.25929 146.86263 30912 ft 491 kts 10°
2026-04-27 09:51 -11.19227 146.87575 30912 ft 491 kts 10°
2026-04-27 09:51 -11.12564 146.88879 30912 ft 491 kts 10°
2026-04-27 09:52 -11.05887 146.90187 30912 ft 492 kts 10°
2026-04-27 09:52 -10.99160 146.91502 30912 ft 492 kts 10°
2026-04-27 09:53 -10.92473 146.92812 30912 ft 494 kts 10°
2026-04-27 09:53 -10.85811 146.94115 30912 ft 495 kts 10°
2026-04-27 09:54 -10.79062 146.95432 30912 ft 495 kts 10°
2026-04-27 09:54 -10.72320 146.96750 30912 ft 496 kts 10°
2026-04-27 09:55 -10.65576 146.98073 30911 ft 495 kts 10°
2026-04-27 09:55 -10.62240 146.98726 30910 ft 482 kts 10°
2026-04-27 09:55 -10.55918 146.99962 30911 ft 447 kts 10°
2026-04-27 09:56 -10.52957 147.00540 30792 ft 434 kts 10°
2026-04-27 09:56 -10.50016 147.01114 30310 ft 430 kts 10°
2026-04-27 09:56 -10.47084 147.01685 29776 ft 428 kts 11°
2026-04-27 09:56 -10.44191 147.02251 29232 ft 426 kts 11°
2026-04-27 09:57 -10.41277 147.02820 28682 ft 424 kts 11°
2026-04-27 09:57 -10.38428 147.03377 28141 ft 422 kts 11°
2026-04-27 09:57 -10.35614 147.03926 27607 ft 421 kts 11°
2026-04-27 09:57 -10.32803 147.04474 27071 ft 419 kts 11°
2026-04-27 09:58 -10.30001 147.05022 26535 ft 417 kts 12°
2026-04-27 09:58 -10.27204 147.05568 25992 ft 416 kts 12°
2026-04-27 09:58 -10.24380 147.06018 25432 ft 415 kts
2026-04-27 09:58 -10.21591 147.06284 24893 ft 413 kts
2026-04-27 09:59 -10.18772 147.06535 24351 ft 412 kts
2026-04-27 09:59 -10.15974 147.06818 23815 ft 410 kts
2026-04-27 09:59 -10.13188 147.07104 23278 ft 408 kts
2026-04-27 09:59 -10.10422 147.07387 22746 ft 406 kts
2026-04-27 10:00 -10.07642 147.07669 22210 ft 404 kts
2026-04-27 10:00 -10.04858 147.07954 21673 ft 401 kts
2026-04-27 10:00 -10.02123 147.08237 21145 ft 399 kts
2026-04-27 10:00 -9.99382 147.08517 20615 ft 397 kts
2026-04-27 10:01 -9.96632 147.08800 20081 ft 394 kts
2026-04-27 10:01 -9.93924 147.09078 19555 ft 392 kts
2026-04-27 10:01 -9.91266 147.09351 19038 ft 389 kts
2026-04-27 10:01 -9.88635 147.09621 18533 ft 387 kts
2026-04-27 10:02 -9.85975 147.09894 18017 ft 384 kts
2026-04-27 10:02 -9.83328 147.10165 17502 ft 381 kts
2026-04-27 10:02 -9.80912 147.10413 17030 ft 378 kts
2026-04-27 10:02 -9.78132 147.10698 16486 ft 375 kts
2026-04-27 10:03 -9.75598 147.10959 15989 ft 372 kts
2026-04-27 10:03 -9.73065 147.11218 15519 ft 368 kts
2026-04-27 10:03 -9.70523 147.11479 15064 ft 364 kts
2026-04-27 10:03 -9.68026 147.11737 14580 ft 361 kts
2026-04-27 10:04 -9.65603 147.11986 14103 ft 358 kts
2026-04-27 10:04 -9.63222 147.12230 13640 ft 355 kts
2026-04-27 10:04 -9.61072 147.12451 13216 ft 353 kts
2026-04-27 10:04 -9.58558 147.12709 12719 ft 350 kts
2026-04-27 10:05 -9.56275 147.12942 12267 ft 347 kts
2026-04-27 10:05 -9.53808 147.13196 11779 ft 344 kts
2026-04-27 10:05 -9.51417 147.13422 11263 ft 343 kts
2026-04-27 10:05 -9.49180 147.13145 10783 ft 344 kts 343°
2026-04-27 10:06 -9.47015 147.11975 10295 ft 345 kts 328°
2026-04-27 10:06 -9.45019 147.10681 9996 ft 327 kts 331°
2026-04-27 10:06 -9.43178 147.09564 9756 ft 306 kts 331°
2026-04-27 10:06 -9.41418 147.08489 9345 ft 293 kts 331°
2026-04-27 10:07 -9.39721 147.07445 8973 ft 281 kts 331°
2026-04-27 10:07 -9.38115 147.06457 8624 ft 270 kts 331°
2026-04-27 10:07 -9.36545 147.05492 8282 ft 259 kts 331°
2026-04-27 10:07 -9.35006 147.04544 7956 ft 265 kts 331°
2026-04-27 10:08 -9.33395 147.03551 7591 ft 274 kts 330°
2026-04-27 10:08 -9.31826 147.02582 7227 ft 271 kts 331°
2026-04-27 10:08 -9.30221 147.01593 6877 ft 268 kts 330°
2026-04-27 10:08 -9.28662 147.00632 6538 ft 266 kts 330°
2026-04-27 10:09 -9.27077 146.99760 6184 ft 261 kts 342°
2026-04-27 10:09 -9.25339 146.99507 5852 ft 251 kts
2026-04-27 10:09 -9.23712 147.00001 5540 ft 240 kts 30°
2026-04-27 10:09 -9.22459 147.00992 5265 ft 230 kts 52°
2026-04-27 10:10 -9.21610 147.02292 5033 ft 221 kts 61°
2026-04-27 10:10 -9.20833 147.03577 4786 ft 214 kts 60°
2026-04-27 10:10 -9.20221 147.04883 4530 ft 206 kts 78°
2026-04-27 10:10 -9.20230 147.06230 4299 ft 198 kts 105°
2026-04-27 10:11 -9.20792 147.07407 4061 ft 192 kts 127°
2026-04-27 10:11 -9.21777 147.08235 3811 ft 180 kts 148°
2026-04-27 10:11 -9.22807 147.08864 3634 ft 166 kts 146°
2026-04-27 10:11 -9.23795 147.09479 3556 ft 168 kts 147°
2026-04-27 10:12 -9.24795 147.10097 3498 ft 168 kts 147°
2026-04-27 10:12 -9.25793 147.10713 3437 ft 168 kts 147°
2026-04-27 10:12 -9.26781 147.11324 3377 ft 168 kts 147°
2026-04-27 10:12 -9.27755 147.11923 3317 ft 168 kts 147°
2026-04-27 10:13 -9.28754 147.12540 3107 ft 168 kts 147°
2026-04-27 10:13 -9.29687 147.13113 2929 ft 157 kts 147°
2026-04-27 10:13 -9.30607 147.13681 2779 ft 154 kts 147°
2026-04-27 10:13 -9.31513 147.14241 2616 ft 155 kts 147°
2026-04-27 10:14 -9.32443 147.14764 2458 ft 155 kts 150°
2026-04-27 10:14 -9.33326 147.15289 2276 ft 151 kts 147°
2026-04-27 10:14 -9.34206 147.15840 2081 ft 144 kts 147°
2026-04-27 10:14 -9.35046 147.16374 1906 ft 142 kts 146°
2026-04-27 10:15 -9.35867 147.16898 1732 ft 142 kts 146°
2026-04-27 10:15 -9.36699 147.17429 1556 ft 141 kts 146°
2026-04-27 10:15 -9.37520 147.17938 1411 ft 141 kts 147°
2026-04-27 10:15 -9.38345 147.18445 1311 ft 134 kts 147°
2026-04-27 10:16 -9.39158 147.18938 1195 ft 141 kts 146°
2026-04-27 10:16 -9.39985 147.19459 962 ft 140 kts 146°
2026-04-27 10:16 -9.40793 147.19977 682 ft 139 kts 147°
2026-04-27 10:16 -9.41605 147.20470 478 ft 138 kts 147°
2026-04-27 10:17 -9.42402 147.20966 304 ft 134 kts 147°
2026-04-27 10:17 -9.43183 147.21449 177 ft 130 kts 147°
2026-04-27 10:17 -9.43928 147.21912 137 ft 109 kts 147°
2026-04-27 10:17 -9.44413 147.22209 136 ft 55 kts 149°
2026-04-27 10:18 -9.44682 147.22374 136 ft 40 kts 150°
2026-04-27 10:18 -9.44900 147.22510 136 ft 32 kts 148°
2026-04-27 10:18 -9.45056 147.22606 136 ft 21 kts 148°
2026-04-27 10:18 -9.45150 147.22679 136 ft 11 kts 114°
2026-04-27 10:19 -9.45187 147.22711 136 ft 5 kts 211°
2026-04-27 10:19 -9.45181 147.22682 136 ft 6 kts 323°
2026-04-27 10:19 -9.45132 147.22655 136 ft 9 kts 330°
2026-04-27 10:19 -9.45063 147.22612 136 ft 13 kts 326°
2026-04-27 10:20 -9.44981 147.22562 136 ft 15 kts 329°
2026-04-27 10:20 -9.44887 147.22504 136 ft 16 kts 327°
2026-04-27 10:20 -9.44790 147.22444 136 ft 16 kts 330°
2026-04-27 10:20 -9.44677 147.22376 136 ft 21 kts 326°
2026-04-27 10:21 -9.44548 147.22296 136 ft 21 kts 328°
2026-04-27 10:21 -9.44482 147.22231 136 ft 12 kts 277°
2026-04-27 10:21 -9.44519 147.22150 136 ft 14 kts 240°
2026-04-27 10:21 -9.44567 147.22067 136 ft 12 kts 239°
2026-04-27 10:22 -9.44615 147.21985 136 ft 16 kts 239°
2026-04-27 10:22 -9.44641 147.21898 136 ft 11 kts 308°
2026-04-27 10:22 -9.44571 147.21848 136 ft 14 kts 327°
2026-04-27 10:22 -9.44482 147.21793 136 ft 15 kts 330°
2026-04-27 10:23 -9.44387 147.21736 136 ft 16 kts 330°
2026-04-27 10:23 -9.44286 147.21672 136 ft 18 kts 327°
2026-04-27 10:23 -9.44175 147.21605 136 ft 19 kts 329°
2026-04-27 10:23 -9.44056 147.21532 136 ft 20 kts 328°
2026-04-27 10:24 -9.43936 147.21457 136 ft 19 kts 327°
2026-04-27 10:24 -9.43850 147.21385 136 ft 13 kts 289°
2026-04-27 10:24 -9.43852 147.21306 136 ft 10 kts 309°
2026-04-27 10:24 -9.43833 147.21269 136 ft 5 kts 242°
2026-04-27 10:25 -9.43857 147.21237 136 ft 5 kts 241°
2026-04-27 10:25 -9.43870 147.21216 136 ft 1 kts 239°
2026-04-27 10:25 -9.43871 147.21214 136 ft 0 kts 240°